CAPE
0 0 18 34 96 267 438 684 740 877 643 592 707 372 163 31 19 18 0 0 0 0 0 1 0 2 15 16 2 37 74 60
0 0 0 0 21 163 344 648 590 438 352 254 221 63 28 25 36 33 41 0 0 0 0 0 0 0 2 14 4 28 72 104
0 0 0 0 0 43 258 386 385 276 143 52 35 63 2 0 0 0 0 0 0 0 0 1 0 28 23 44 30 55 82 112
0 0 0 0 2 3 5 187 224 198 37 0 3 39 7 0 0 0 0 0 0 0 1 21 18 24 37 23 24 29 78 95
0 0 2 0 2 1 2 63 82 10 0 11 18 31 16 8 4 11 9 0 3 0 0 23 34 14 30 13 12 21 36 63
0 0 0 0 0 0 0 7 2 2 13 17 11 16 22 10 9 32 42 55 32 13 22 48 35 0 0 0 0 0 9 38
0 0 0 0 0 0 0 0 0 2 0 0 14 32 50 18 34 59 88 101 57 79 46 47 38 0 0 0 0 0 14 20
0 0 0 0 1 0 0 0 0 0 0 5 35 23 17 45 101 142 203 145 94 91 28 11 0 6 1 6 8 1 35 44
0 0 0 0 1 3 0 0 0 2 4 28 15 71 48 38 35 60 164 110 60 23 0 0 0 20 16 24 15 0 38 44
0 0 0 2 6 0 0 0 0 3 22 10 53 80 41 28 48 99 124 73 60 74 14 1 26 18 21 0 0 3 13 53
0 0 4 6 15 0 1 0 0 13 19 8 12 6 4 18 4 32 32 15 20 66 57 15 38 27 3 0 0 1 29 31
0 0 3 8 1 0 0 0 0 19 11 3 7 30 0 0 0 0 0 0 17 14 32 36 39 14 14 0 0 15 56 99
0 0 0 0 0 0 0 0 2 4 16 22 66 2 0 0 0 0 0 0 12 6 7 0 0 0 9 0 0 7 60 78
0 0 0 0 0 0 0 0 3 0 0 18 26 0 0 0 0 0 0 0 33 0 2 8 10 6 0 0 0 0 15 32
0 0 0 0 0 0 0 0 0 0 4 32 0 3 0 0 0 0 0 1 24 0 8 9 29 22 51 39 26 0 2 33
0 0 0 0 0 0 0 0 0 0 13 6 0 0 0 0 0 0 0 0 0 10 5 4 13 84 63 66 70 36 10 43
0 0 0 0 0 0 0 0 0 0 0 0 0 7 0 0 0 0 0 0 0 0 0 7 34 52 66 67 74 45 14 27
0 0 0 0 0 0 0 0 0 0 0 0 1 13 20 0 0 0 0 0 0 0 0 6 34 43 81 75 113 131 140 92
0 0 0 0 0 0 0 0 0 0 0 0 2 22 31 0 0 0 0 0 0 0 0 14 28 64 103 85 152 312 244 255
0 0 0 0 0 0 0 0 0 0 0 0 2 17 28 0 0 0 0 0 0 0 3 46 36 53 91 63 55 58 72 180
CIN
-0 -0 -355 -416 -422 -480 -477 -413 -344 -278 -305 -258 -162 -210 -224 -268 -291 -254 -0 -0 -0 -0 -0 -0 -0 -3 -44 -36 -3 -19 -22 -1
-0 -0 -0 -0 -413 -462 -475 -402 -394 -385 -399 -380 -318 -335 -312 -272 -223 -183 -99 -0 -0 -0 -0 -0 -0 -0 -29 -33 -60 -11 -3 -1
-0 -0 -0 -0 -104 -419 -402 -456 -443 -441 -451 -450 -422 -318 -156 -0 -0 -0 -0 -0 -0 -0 -1 -1 -11 -17 -27 -15 -18 -16 -6 -4
-0 -0 -0 -0 -3 -3 -155 -504 -439 -413 -468 -0 -346 -338 -294 -0 -0 -0 -0 -0 -0 -0 -3 -7 -22 -25 -11 -18 -15 -18 -7 -5
-0 -0 -1 -0 -1 -1 -18 -504 -392 -573 -0 -399 -401 -341 -234 -172 -148 -99 -60 -0 -19 -0 -0 -9 -20 -25 -13 -11 -18 -14 -13 -4
-0 -0 -0 -0 -0 -0 -0 -404 -501 -537 -474 -427 -353 -260 -195 -144 -114 -66 -39 -27 -14 -4 -6 -14 -1 -0 -0 -0 -0 -0 -14 -5
-0 -0 -0 -0 -0 -0 -0 -0 -0 -265 -0 -58 -287 -220 -187 -135 -112 -67 -29 -19 -8 -1 -3 -3 -2 -0 -0 -0 -0 -0 -8 -10
-0 -0 -0 -0 -6 -0 -0 -0 -0 -0 -0 -381 -263 -220 -155 -116 -88 -47 -22 -15 -24 -5 -10 -20 -0 -24 -6 -9 -6 -1 -11 -10
-0 -0 -0 -0 -11 -8 -0 -0 -0 -358 -432 -318 -256 -166 -135 -115 -104 -52 -22 -20 -8 -9 -6 -0 -0 -12 -14 -6 -7 -0 -16 -28
-0 -0 -0 -7 -6 -0 -0 -0 -0 -426 -340 -301 -236 -155 -125 -123 -119 -51 -17 -19 -9 -1 -8 -44 -14 -12 -10 -0 -0 -35 -18 -52
-0 -0 -4 -4 -2 -0 -667 -0 -0 -370 -300 -313 -232 -173 -66 -75 -131 -78 -37 -42 -28 -5 -2 -13 -9 -16 -7 -0 -0 -8 -53 -42
-0 -0 -12 -15 -3 -0 -0 -0 -0 -307 -297 -33 -57 -92 -0 -0 -0 -0 -0 -0 -38 -21 -7 -12 -17 -26 -27 -0 -0 -41 -44 -53
-0 -0 -0 -0 -0 -0 -0 -0 -175 -303 -276 -157 -75 -10 -0 -0 -0 -0 -0 -0 -40 -24 -19 -0 -2 -0 -33 -0 -0 -72 -22 -28
-0 -0 -0 -0 -0 -0 -0 -0 -229 -0 -0 -143 -66 -0 -0 -0 -0 -0 -0 -0 -15 -0 -12 -31 -12 -12 -0 -0 -0 -0 -37 -24
-0 -0 -0 -0 -0 -0 -0 -0 -0 -0 -226 -99 -0 -6 -0 -0 -0 -0 -0 -21 -24 -0 -32 -20 -15 -12 -27 -31 -58 -0 -18 -40
-0 -0 -0 -0 -0 -0 -0 -0 -0 -0 -182 -72 -0 -0 -0 -0 -0 -0 -0 -0 -8 -21 -31 -23 -40 -37 -34 -38 -56 -47 -42 -40
-0 -0 -0 -0 -0 -0 -0 -0 -0 -0 -0 -0 -0 -11 -1 -0 -0 -0 -0 -0 -0 -0 -0 -56 -50 -40 -45 -38 -42 -38 -67 -47
-0 -0 -0 -0 -0 -0 -0 -0 -0 -0 -0 -0 -3 -5 -5 -0 -0 -0 -0 -0 -0 -0 -0 -92 -63 -50 -48 -33 -22 -19 -13 -22
-0 -0 -0 -0 -0 -0 -0 -0 -0 -0 -0 -0 -15 -7 -5 -0 -0 -0 -0 -0 -0 -0 -0 -73 -55 -37 -24 -30 -7 -0 -8 -3
-0 -0 -0 -0 -0 -0 -0 -0 -0 -0 -0 -0 -13 -14 -21 -0 -0 -0 -0 -0 -0 -0 -12 -44 -52 -35 -20 -20 -40 -32 -11 -17
Wind_Speed
nan nan nan nan nan 34 37 42 41 43 41 42 43 43 40 nan nan nan nan nan nan nan nan nan nan nan nan nan nan nan nan nan
nan nan nan nan nan 34 37 44 41 39 42 44 42 nan nan nan nan nan nan nan nan nan nan nan nan nan nan nan nan nan nan 36
nan nan nan nan nan nan 36 41 43 40 40 nan nan nan nan nan nan nan nan nan nan nan nan nan nan nan nan nan nan nan nan 34
nan nan nan nan nan nan nan 39 45 44 nan nan nan nan nan nan nan nan nan nan nan nan nan nan nan nan nan nan nan nan nan nan
nan nan nan nan nan nan nan nan nan nan nan nan nan nan nan nan nan nan nan nan nan nan nan nan nan nan nan nan nan nan nan nan
nan nan nan nan nan nan nan nan nan nan nan nan nan nan nan nan nan nan nan nan nan nan nan nan nan nan nan nan nan nan nan nan
nan nan nan nan nan nan nan nan nan nan nan nan nan nan nan nan nan nan nan 37 nan nan nan nan nan nan nan nan nan nan nan nan
nan nan nan nan nan nan nan nan nan nan nan nan nan nan nan nan 32 32 32 29 nan nan nan nan nan nan nan nan nan nan nan nan
nan nan nan nan nan nan nan nan nan nan nan nan nan nan nan nan nan nan 31 27 nan nan nan nan nan nan nan nan nan nan nan nan
nan nan nan nan nan nan nan nan nan nan nan nan nan nan nan nan nan nan 29 nan nan nan nan nan nan nan nan nan nan nan nan nan
nan nan nan nan nan nan nan nan nan nan nan nan nan nan nan nan nan nan nan nan nan nan nan nan nan nan nan nan nan nan nan nan
nan nan nan nan nan nan nan nan nan nan nan nan nan nan nan nan nan nan nan nan nan nan nan nan nan nan nan nan nan nan nan nan
nan nan nan nan nan nan nan nan nan nan nan nan nan nan nan nan nan nan nan nan nan nan nan nan nan nan nan nan nan nan nan nan
nan nan nan nan nan nan nan nan nan nan nan nan nan nan nan nan nan nan nan nan nan nan nan nan nan nan nan nan nan nan nan nan
nan nan nan nan nan nan nan nan nan nan nan nan nan nan nan nan nan nan nan nan nan nan nan nan nan nan nan nan nan nan nan nan
nan nan nan nan nan nan nan nan nan nan nan nan nan nan nan nan nan nan nan nan nan nan nan nan nan nan nan nan nan nan nan nan
nan nan nan nan nan nan nan nan nan nan nan nan nan nan nan nan nan nan nan nan nan nan nan nan nan nan nan nan nan nan nan nan
nan nan nan nan nan nan nan nan nan nan nan nan nan nan nan nan nan nan nan nan nan nan nan nan nan nan nan nan 14 14 15 nan
nan nan nan nan nan nan nan nan nan nan nan nan nan nan nan nan nan nan nan nan nan nan nan nan nan nan 13 nan 14 16 16 12
nan nan nan nan nan nan nan nan nan nan nan nan nan nan nan nan nan nan nan nan nan nan nan nan nan nan nan nan nan nan nan 14
Wind_Direction
nan nan nan nan nan 299 305 304 305 309 311 308 308 306 306 nan nan nan nan nan nan nan nan nan nan nan nan nan nan nan nan nan
nan nan nan nan nan 307 304 303 307 315 311 310 307 nan nan nan nan nan nan nan nan nan nan nan nan nan nan nan nan nan nan 271
nan nan nan nan nan nan 315 316 316 318 311 nan nan nan nan nan nan nan nan nan nan nan nan nan nan nan nan nan nan nan nan 270
nan nan nan nan nan nan nan 321 316 315 nan nan nan nan nan nan nan nan nan nan nan nan nan nan nan nan nan nan nan nan nan nan
nan nan nan nan nan nan nan nan nan nan nan nan nan nan nan nan nan nan nan nan nan nan nan nan nan nan nan nan nan nan nan nan
nan nan nan nan nan nan nan nan nan nan nan nan nan nan nan nan nan nan nan nan nan nan nan nan nan nan nan nan nan nan nan nan
nan nan nan nan nan nan nan nan nan nan nan nan nan nan nan nan nan nan nan 319 nan nan nan nan nan nan nan nan nan nan nan nan
nan nan nan nan nan nan nan nan nan nan nan nan nan nan nan nan 321 324 326 315 nan nan nan nan nan nan nan nan nan nan nan nan
nan nan nan nan nan nan nan nan nan nan nan nan nan nan nan nan nan nan 325 322 nan nan nan nan nan nan nan nan nan nan nan nan
nan nan nan nan nan nan nan nan nan nan nan nan nan nan nan nan nan nan 324 nan nan nan nan nan nan nan nan nan nan nan nan nan
nan nan nan nan nan nan nan nan nan nan nan nan nan nan nan nan nan nan nan nan nan nan nan nan nan nan nan nan nan nan nan nan
nan nan nan nan nan nan nan nan nan nan nan nan nan nan nan nan nan nan nan nan nan nan nan nan nan nan nan nan nan nan nan nan
nan nan nan nan nan nan nan nan nan nan nan nan nan nan nan nan nan nan nan nan nan nan nan nan nan nan nan nan nan nan nan nan
nan nan nan nan nan nan nan nan nan nan nan nan nan nan nan nan nan nan nan nan nan nan nan nan nan nan nan nan nan nan nan nan
nan nan nan nan nan nan nan nan nan nan nan nan nan nan nan nan nan nan nan nan nan nan nan nan nan nan nan nan nan nan nan nan
nan nan nan nan nan nan nan nan nan nan nan nan nan nan nan nan nan nan nan nan nan nan nan nan nan nan nan nan nan nan nan nan
nan nan nan nan nan nan nan nan nan nan nan nan nan nan nan nan nan nan nan nan nan nan nan nan nan nan nan nan nan nan nan nan
nan nan nan nan nan nan nan nan nan nan nan nan nan nan nan nan nan nan nan nan nan nan nan nan nan nan nan nan 130 137 151 nan
nan nan nan nan nan nan nan nan nan nan nan nan nan nan nan nan nan nan nan nan nan nan nan nan nan nan 161 nan 139 132 143 146
nan nan nan nan nan nan nan nan nan nan nan nan nan nan nan nan nan nan nan nan nan nan nan nan nan nan nan nan nan nan nan 149